User: anonymous
Location: Bangkok
(13.7500°N, 100.5170°E)
Time: 14:57:29
(UTC+07:00)
Language:

ERBS - Orbit

View from above orbital plane
View from above orbital plane
View from above satellite
View from above satellite

Ground track
Ground track

The orbit data is extracted from the following two-line orbital elements,

1 15354U 84108B   14261.80746781  .00006703  00000-0  24207-3 0  5804
2 15354 057.0133 099.6491 0018354 029.0292 331.1773 15.29536821643945
Epoch (UTC): 18 September 2014 19:22:45
Eccentricity: 0.0018354
inclination: 57.0133°
perigee height: 464 km
apogee height: 490 km
right ascension of ascending node: 99.6491°
argument of perigee: 29.0292°
revolutions per day: 15.29536821
mean anomaly at epoch: 331.1773°
orbit number at epoch: 64394

The dashed part of the orbit path shows where the satellite is in the earth's shadow,  

DLR